Location: Newark
(25.0000°N, 73.5000°E)
Time: 00:47:53
(UTC+00:00)

Explorer 11/Cluster Stage 4 - All Passes

Search period start: 31 July 2021 00:00
Search period end: 10 August 2021 00:00
Orbit: 467 x 1257 km, 28.8° (Epoch: 30 July)

Date Brightness Start Highest point End Pass type
(mag) Time Alt. Az. Time Alt. Az. Time Alt. Az.
31 Jul - 01:18:15 10° S 01:23:29 21° SE 01:29:07 10° E daylight
31 Jul - 03:04:35 10° SW 03:12:14 57° SSE 03:20:16 10° E daylight
31 Jul - 04:53:28 10° W 05:01:44 80° NNW 05:09:42 10° ENE daylight
31 Jul - 06:43:25 10° W 06:51:36 66° N 06:58:50 10° E daylight
31 Jul - 08:33:24 10° WNW 08:41:13 88° NNE 08:47:37 10° ESE daylight
31 Jul - 10:23:36 10° W 10:29:55 38° SSW 10:35:05 10° SE daylight
01 Aug - 01:06:38 10° SSW 01:12:07 24° SE 01:18:09 10° E daylight
01 Aug - 02:53:18 10° SW 03:00:52 63° SSE 03:09:02 10° ENE daylight
01 Aug - 04:42:15 10° W 04:50:26 76° N 04:58:31 10° ENE daylight
01 Aug - 06:32:08 10° W 06:40:22 68° N 06:47:47 10° E daylight
01 Aug - 08:22:02 10° WNW 08:29:59 85° SSW 08:36:37 10° ESE daylight
01 Aug - 10:12:22 10° W 10:18:40 34° SSW 10:23:55 10° SSE daylight
02 Aug - 00:55:09 10° SSW 01:00:47 27° SSE 01:07:06 10° E daylight
02 Aug - 02:42:05 10° WSW 02:49:33 70° SSE 02:57:46 10° ENE daylight
02 Aug - 04:31:05 10° W 04:39:10 73° N 04:47:20 10° ENE daylight
02 Aug - 06:20:52 10° WNW 06:29:08 69° N 06:36:44 10° E daylight
02 Aug - 08:10:41 10° WNW 08:18:44 79° SSW 08:25:34 10° ESE daylight
02 Aug - 10:01:10 10° W 10:07:23 30° SSW 10:12:39 10° SSE daylight
03 Aug - 00:43:44 10° SSW 00:49:26 30° SSE 00:55:58 10° E daylight
03 Aug - 02:30:54 10° WSW 02:38:13 76° SSE 02:46:28 10° ENE daylight
03 Aug - 04:19:56 10° W 04:27:54 71° N 04:36:07 10° ENE daylight
03 Aug - 06:09:36 10° WNW 06:17:53 72° N 06:25:38 10° E daylight
03 Aug - 07:59:21 10° WNW 08:07:28 72° SSW 08:14:29 10° ESE daylight
03 Aug - 09:50:01 10° W 09:56:05 27° SSW 10:01:20 10° SSE daylight
04 Aug - 00:32:25 10° SSW 00:38:07 34° SSE 00:44:47 10° E daylight
04 Aug - 02:19:47 10° WSW 02:26:56 82° SSE 02:35:08 10° ENE daylight
04 Aug - 04:08:48 10° W 04:16:38 69° N 04:24:53 10° ENE daylight
04 Aug - 05:58:21 10° WNW 06:06:36 74° N 06:14:31 10° E daylight
04 Aug - 07:48:02 10° WNW 07:56:09 66° SSW 08:03:19 10° ESE daylight
04 Aug - 09:38:55 10° W 09:44:46 24° SW 09:49:56 10° SSE daylight
05 Aug - 00:21:10 10° SW 00:26:49 38° SSE 00:33:34 10° E daylight
05 Aug - 02:08:42 10° WSW 02:15:39 88° SSE 02:23:48 10° ENE daylight
05 Aug - 03:57:42 10° W 04:05:22 68° N 04:13:38 10° E daylight
05 Aug - 05:47:06 10° WNW 05:55:20 78° N 06:03:22 10° E daylight
05 Aug - 07:36:44 10° WNW 07:44:50 60° SSW 07:52:07 10° SE daylight
05 Aug - 09:27:54 10° W 09:33:26 21° SW 09:38:25 10° SSE daylight
06 Aug - 00:10:00 10° SW 00:15:32 42° SSE 00:22:19 10° E visible
06 Aug - 01:57:40 10° WSW 02:04:25 86° NNW 02:12:26 10° ENE daylight
06 Aug - 03:46:37 10° W 03:54:08 67° N 04:02:23 10° E daylight
06 Aug - 05:35:53 10° WNW 05:44:02 82° NNE 05:52:12 10° E daylight
06 Aug - 07:25:29 10° W 07:33:29 54° SSW 07:40:51 10° SE daylight
06 Aug - 09:17:00 10° WSW 09:22:04 19° SW 09:26:47 10° S daylight
06 Aug - 22:14:41 10° SSE 22:16:27 11° SE 22:18:18 10° ESE visible
06 Aug - 23:58:52 10° SW 00:04:18 47° SSE 00:11:01 10° E visible
07 Aug - 01:46:41 10° W 01:53:12 81° NNW 02:01:05 10° ENE daylight
07 Aug - 03:35:34 10° W 03:42:54 66° N 03:51:07 10° E daylight
07 Aug - 05:24:41 10° WNW 05:32:44 87° NNE 05:40:58 10° ESE daylight
07 Aug - 07:14:15 10° W 07:22:07 48° SSW 07:29:31 10° SE daylight
07 Aug - 09:06:13 10° WSW 09:10:44 16° SW 09:14:58 10° S daylight
07 Aug - 22:02:49 10° S 22:05:13 13° SE 22:07:51 10° ESE visible
07 Aug - 23:47:47 10° SW 23:53:05 53° SSE 23:59:43 10° E visible
08 Aug - 01:35:43 10° W 01:42:00 76° N 01:49:43 10° ENE daylight
08 Aug - 03:24:30 10° WNW 03:31:40 67° N 03:39:50 10° E daylight
08 Aug - 05:13:30 10° WNW 05:21:25 88° SSW 05:29:43 10° ESE daylight
08 Aug - 07:03:05 10° W 07:10:44 43° SSW 07:18:08 10° SE daylight
08 Aug - 08:55:41 10° WSW 08:59:23 14° SW 09:02:56 10° S daylight
08 Aug - 21:51:14 10° S 21:54:02 15° SE 21:57:08 10° ESE visible
08 Aug - 23:36:46 10° SW 23:41:54 60° SSE 23:48:24 10° ENE visible
09 Aug - 01:24:46 10° W 01:30:51 71° N 01:38:21 10° ENE daylight
09 Aug - 03:13:29 10° WNW 03:20:27 68° N 03:28:32 10° E daylight
09 Aug - 05:02:20 10° WNW 05:10:06 82° SSW 05:18:25 10° ESE daylight
09 Aug - 06:51:57 10° W 06:59:21 38° SSW 07:06:39 10° SE daylight
09 Aug - 08:45:37 10° SW 08:48:03 11° SW 08:50:25 10° SSW daylight
09 Aug - 21:39:48 10° S 21:42:50 18° SE 21:46:17 10° ESE visible
09 Aug - 23:25:48 10° WSW 23:30:46 67° SSE 23:37:05 10° ENE visible
